Home   Weather   Theni   Past weeks

Flag for India Past Weather in Theni, Tamil Nadu, India — Yesterday and Last 2 Weeks

Now
97 °F

Clear.


Feels Like: 93 °F
Forecast: 62 / 98 °F
Wind: 12 mph from Northeast

Location: Coimbatore / Peelamedu

Current Time: Feb 22, 2017 at 4:48:02 pm

Latest Report: Feb 22, 2017 at 4:00 pm


Visibility: 5 mi

Pressure: 29.80 "Hg

Humidity: 16%

Dew Point: 43 °F

Location of TheniLocation

Past Weather in Theni — Graph

°F

Theni Temperature Yesterday

Maximum temperature yesterday: 95 °F (at 2:30 pm)
Minimum temperature yesterday: 72 °F (at 4:30 am)
Average temperature yesterday: 84 °F

High & Low Weather Summary for the Past Weeks

 TemperatureHumidityPressure
High99 °F (Feb 22, 3:00 pm)100% (Feb 21, 11:00 am)30.15 "Hg (Feb 21, 11:00 am)
Low64 °F (Feb 18, 6:30 am)12% (Feb 19, 4:30 pm)29.80 "Hg (Feb 21, 4:00 pm)
Average80 °F47%29.99 "Hg
* Reported Feb 7 3:30 pm — Feb 22 3:30 pm, Theni, Weather by CustomWeather, © 2017

Note: Actual official high and low records may vary slightly from our data, if they occured in-between our weather recording intervals... More about our weather records

Advertising

Theni Weather History for the Previous 24 Hours

Scroll right to see more
 ConditionsComfort  
Time TempWeatherWind HumidityBarometerVisibility
3:30 pm
Wed, Feb 22
99 °FClear.8 mph14%29.80 "Hg5 mi
3:00 pm99 °FClear.2 mph15%29.83 "Hg5 mi
2:30 pm97 °FClear.5 mph18%29.86 "Hg5 mi
2:00 pm97 °FClear.9 mph19%29.86 "Hg4 mi
1:30 pm95 °FClear.5 mph20%29.89 "Hg4 mi
1:00 pm95 °FClear.8 mph20%29.89 "Hg4 mi
12:30 pm93 °FClear.7 mph24%29.92 "Hg4 mi
12:00 pm91 °FClear.3 mph26%29.95 "Hg4 mi
11:30 am90 °FClear.5 mph33%29.95 "Hg4 mi
11:00 am88 °FHaze.No wind43%29.98 "Hg3 mi
10:30 am86 °FHaze.No wind46%29.98 "Hg3 mi
10:00 am84 °FHaze.No wind55%29.98 "Hg3 mi
9:30 am81 °FHaze.No wind66%29.98 "Hg2 mi
9:00 am77 °FFog.No wind79%29.98 "Hg1 mi
8:30 am75 °FFog.No wind83%29.95 "Hg1 mi
7:30 am73 °FFog.3 mph89%29.95 "Hg0 mi
7:00 am73 °FFog.5 mph89%29.92 "Hg1 mi
6:30 am73 °FFog.2 mph89%29.89 "Hg1 mi
6:00 am73 °FFog.2 mph94%29.89 "Hg2 mi
5:30 am73 °FFog.No wind94%29.86 "Hg2 mi
4:30 am75 °FFog.No wind89%29.86 "Hg3 mi
2:30 am75 °FFog.No wind89%29.86 "Hg3 mi
1:30 am77 °FClear.No wind83%29.89 "Hg4 mi
12:30 am77 °FClear.No wind83%29.89 "Hg4 mi
11:30 pm
Tue, Feb 21
79 °FClear.6 mph74%29.92 "Hg4 mi
11:00 pm79 °FClear.6 mph79%29.92 "Hg4 mi
10:30 pm81 °FClear.6 mph74%29.92 "Hg4 mi
10:00 pm81 °FClear.5 mph70%29.92 "Hg4 mi
9:30 pm82 °FClear.7 mph70%29.89 "Hg4 mi
9:00 pm84 °FClear.7 mph55%29.89 "Hg4 mi
8:30 pm84 °FClear.7 mph55%29.86 "Hg4 mi
8:00 pm86 °FClear.6 mph52%29.86 "Hg4 mi
7:30 pm88 °FClear.3 mph43%29.86 "Hg4 mi
7:00 pm90 °FClear.5 mph36%29.83 "Hg4 mi
6:30 pm91 °FClear.3 mph28%29.83 "Hg4 mi
6:00 pm93 °FClear.5 mph20%29.80 "Hg4 mi
5:30 pm95 °FClear.7 mph16%29.80 "Hg4 mi
5:00 pm95 °FPassing clouds.7 mph20%29.80 "Hg4 mi
4:30 pm95 °FPassing clouds.6 mph26%29.80 "Hg4 mi
4:00 pm95 °FPassing clouds.5 mph28%29.80 "Hg4 mi
Weather by CustomWeather, © 2017

See weather overviewHow to use our weather pages